Home > Time Zones > World Clock > Weather > U.S.A. > Waco > Past weeks

Flag for U.S.A. Weather past 2 weeks in Waco, Texas, U.S.A.

Now
68 °F

Sunny.


Feels Like: 68 °F
Forecast: 63 / 86 °F
Wind: No wind

Location: Waco Regional Airport

Current Time: Apr 25, 2015 at 10:08:46 PM

Latest Report: Apr 25, 2015 at 8:51 PM


Visibility: 10 mi

Pressure: 29.67 "Hg

Humidity: 78%

Dew point: 61 °F

Location of WacoLocation

Historic Weather in Waco — Graph

°F

Waco temperature yesterday

Maximum temperature yesterday: 80 °F (at 12:51 PM)
Minimum temperature yesterday: 66 °F (at 8:51 PM)
Average temperature yesterday: 73 °F

Past Weeks' High & Low Weather Summary

 TemperatureHumidityPressure
High88 °F (Apr 25, 3:51 PM)100% (Apr 22, 7:51 PM)30.13 "Hg (Apr 22, 7:51 PM)
Low44 °F (Apr 15, 6:51 AM)24% (Apr 25, 3:51 PM)29.63 "Hg (Apr 24, 5:51 PM)
Average67 °F79%29.90 "Hg
* Reported Apr 10 8:51 PM — Apr 25 8:51 PM, Waco, Weather by CustomWeather, © 2015

Note: Actual official high and low records may vary slightly from our data, if they occured in-between our weather recording intervals... More about our weather records

Advertising

Waco weather history for previous 24 hours

 ConditionsComfort  
Time TempWeatherWind HumidityBarometerVisibility
8:51 PM
Sat, Apr 25
68 °FSunny.No wind78%29.67 "Hg10 mi
7:51 PM77 °FSunny.No wind69%29.65 "Hg9 mi
6:51 PM83 °FSunny.5 mph37%29.65 "Hg10 mi
5:51 PM86 °FSunny.10 mph27%29.65 "Hg10 mi
4:51 PM88 °FSunny.14 mph24%29.65 "Hg9 mi
3:51 PM88 °FSunny.14 mph24%29.66 "Hg10 mi
2:51 PM87 °FSunny.12 mph26%29.69 "Hg10 mi
1:51 PM86 °FSunny.10 mph33%29.70 "Hg10 mi
12:51 PM85 °FSunny.10 mph34%29.72 "Hg10 mi
11:51 AM83 °FSunny.9 mph34%29.73 "Hg10 mi
10:51 AM81 °FSunny.9 mph41%29.75 "Hg10 mi
9:51 AM75 °FSunny.10 mph69%29.75 "Hg10 mi
8:51 AM72 °FSunny.8 mph84%29.76 "Hg9 mi
7:51 AM67 °FFog.6 mph97%29.75 "Hg3 mi
6:51 AM65 °FFog.3 mph97%29.72 "Hg3 mi
5:54 AM64 °FFog.No wind100%29.74 "Hg2 mi
4:51 AM67 °FFog.6 mph93%29.70 "Hg6 mi
3:51 AM65 °FClear.7 mph94%29.70 "Hg9 mi
2:51 AM64 °FClear.7 mph94%29.71 "Hg10 mi
1:51 AM64 °FClear.6 mph97%29.70 "Hg10 mi
12:51 AM66 °FClear.No wind90%29.69 "Hg10 mi
11:51 PM
Fri, Apr 24
68 °FClear.7 mph82%29.70 "Hg10 mi
10:51 PM69 °FClear.10 mph79%29.71 "Hg10 mi
Weather by CustomWeather, © 2015

See weather overviewHow to use our weather pages